Tracking 19242 objects as of 16-Aug-2018
HD Live streaming from Space Station
objects crossing your sky now

COSMOS 457

Track COSMOS 457 now!
10-day predictions
COSMOS 457 is classified as:


NORAD ID: 5614
Int'l Code: 1971-099A
Perigee: 1,190.0 km
Apogee: 1,224.0 km
Inclination: 74.0 °
Period: 109.4 minutes
Semi major axis: 7578 km
RCS: 3.3674 m2 (large)
Launch date: November 20, 1971
Source: Commonwealth of Independent States (former USSR) (CIS)
Launch site: PLESETSK MISSILE AND SPACE COMPLEX (PKMTR)
aabbcc
Your satellite tracking list
Your tracking list is empty




NASA's NSSDC Master Catalog

Two Line Element Set (TLE):
1  5614U 71099A   18227.79187170 +.00000302 +00000-0 +84521-3 0  9990
2  5614 074.0376 337.9844 0022462 087.8031 023.7766 13.16040814244982
Source of the keplerian elements: AFSPC